Weather History for KBAX - January, 2013

Change the Weather History Date:

Wednesday, January 2, 2013

  Actual Average (KP58) Record (KP58)
Temperature  
Mean Temperature 20 °F -  
Max Temperature 23 °F 33 °F 53 °F (2000)
Min Temperature 16 °F 22 °F 9 °F (2001)
Degree Days  
Heating Degree Days 46    
Moisture  
Dew Point 14 °F    
Average Humidity 76    
Maximum Humidity 81    
Minimum Humidity 70    
Precipitation  
Precipitation 0.00 in - - ()
Sea Level Pressure  
Sea Level Pressure 30.09 in    
Wind  
Wind Speed 9 mph (WSW)    
Max Wind Speed 15 mph    
Max Gust Speed 22 mph    
Visibility 10 miles    
Events Snow    
Averages and records for this station are not official NWS values.
T = Trace of Precipitation, MM = Missing Value Source: NWS Daily Summary

Daily Weather History Graph

Daily Weather History Graph

Search for Another Location

Airport or City:

Trip Planner

Search our weather history database for the weather conditions in past years. The results will help you decide how hot, cold, wet, or windy it might be!

Date:

Astronomy

Jan. 02, 2013 Rise Set
Actual Time 8:05 AM EST 5:06 PM EST
Civil Twilight 7:33 AM EST 5:39 PM EST
Nautical Twilight 6:57 AM EST 6:15 PM EST
Astronomical Twilight 6:22 AM EST 6:50 PM EST
Moon 10:49 PM EST (1/2) 10:36 AM EST (1/2)
Length of Visible Light 10h 05m
Length of Day
9h 00m
Waning Gibbous, 75% of the Moon is Illuminated
Jan 2
Waning Gibbous
Jan 4
Last Quarter
Jan 11
New
Jan 18
First Quarter
Jan 26
Full

Hourly Weather History & Observations

Time (EST) Temp. Windchill Dew Point Humidity Pressure Visibility Wind Dir Wind Speed Gust Speed Precip Events Conditions
12:14 AM 18.3 °F 6.6 °F 11.8 °F 76% 30.02 in 10.0 mi West 10.4 mph 16.1 mph N/A   Overcast
12:34 AM 17.1 °F 5.8 °F 10.2 °F 75% 30.02 in 10.0 mi West 9.2 mph 17.3 mph N/A   Scattered Clouds
12:54 AM 16.3 °F 5.7 °F 10.0 °F 76% 30.01 in 10.0 mi West 8.1 mph - N/A   Mostly Cloudy
1:14 AM 17.1 °F 4.3 °F 10.8 °F 76% 30.01 in 10.0 mi West 11.5 mph - N/A   Overcast
1:34 AM 18.1 °F 6.3 °F 11.1 °F 74% 30.01 in 10.0 mi West 10.4 mph - N/A   Overcast
1:54 AM 18.1 °F 5.6 °F 10.8 °F 73% 30.02 in 10.0 mi West 11.5 mph 16.1 mph N/A Snow Light Snow
2:14 AM 18.1 °F 7.1 °F 10.9 °F 73% 30.02 in 10.0 mi West 9.2 mph 19.6 mph N/A   Overcast
2:34 AM 18.0 °F 6.9 °F 10.8 °F 73% 30.02 in 10.0 mi West 9.2 mph - N/A   Overcast
2:54 AM 17.6 °F 6.4 °F 10.9 °F 75% 30.03 in 10.0 mi West 9.2 mph - N/A Snow Light Snow
3:14 AM 17.6 °F 6.4 °F 10.4 °F 73% 30.03 in 10.0 mi West 9.2 mph - N/A   Overcast
3:34 AM 17.6 °F 5.7 °F 10.4 °F 73% 30.03 in 10.0 mi West 10.4 mph - N/A   Overcast
3:54 AM 17.6 °F 5.7 °F 10.4 °F 73% 30.03 in 10.0 mi West 10.4 mph - N/A   Overcast
4:14 AM 17.6 °F 4.3 °F 10.4 °F 73% 30.04 in 10.0 mi West 12.7 mph 18.4 mph N/A   Overcast
4:34 AM 17.6 °F 5.0 °F 10.9 °F 75% 30.04 in 10.0 mi West 11.5 mph 17.3 mph N/A Snow Light Snow
4:54 AM 17.6 °F 6.4 °F 10.9 °F 75% 30.05 in 10.0 mi West 9.2 mph - N/A Snow Light Snow
5:14 AM 17.6 °F 4.3 °F 10.9 °F 75% 30.05 in 10.0 mi West 12.7 mph - N/A   Overcast
5:34 AM 17.6 °F 6.4 °F 11.1 °F 76% 30.05 in 10.0 mi West 9.2 mph - N/A   Overcast
5:54 AM 17.6 °F 5.7 °F 11.3 °F 76% 30.05 in 10.0 mi West 10.4 mph - N/A   Overcast
6:14 AM 17.6 °F 5.7 °F 10.9 °F 75% 30.05 in 10.0 mi West 10.4 mph 18.4 mph N/A   Overcast
6:34 AM 17.6 °F 7.3 °F 11.1 °F 76% 30.05 in 10.0 mi West 8.1 mph - N/A Snow Light Snow
7:14 AM 17.6 °F 5.0 °F 11.1 °F 76% 30.07 in 10.0 mi WNW 11.5 mph 19.6 mph N/A   Overcast
7:34 AM 17.6 °F 6.4 °F 11.3 °F 76% 30.08 in 10.0 mi West 9.2 mph - N/A   Overcast
7:54 AM 17.8 °F 5.2 °F 11.7 °F 77% 30.08 in 10.0 mi West 11.5 mph - N/A   Overcast
8:14 AM 18.1 °F 7.1 °F 11.3 °F 75% 30.07 in 10.0 mi West 9.2 mph - N/A Snow Light Snow
8:34 AM 18.1 °F 8.9 °F 11.8 °F 76% 30.07 in 10.0 mi West 6.9 mph - N/A Snow Light Snow
8:54 AM 18.5 °F 9.3 °F 12.2 °F 76% 30.07 in 10.0 mi WSW 6.9 mph - N/A   Overcast
9:15 AM 19.0 °F 10.0 °F 12.9 °F 77% 30.08 in 10.0 mi West 6.9 mph - N/A   Overcast
9:34 AM 19.8 °F 9.1 °F 13.3 °F 76% 30.08 in 10.0 mi West 9.2 mph - N/A Snow Light Snow
9:54 AM 20.3 °F 8.3 °F 14.0 °F 77% 30.09 in 10.0 mi West 11.5 mph - N/A Snow Light Snow
10:15 AM 20.7 °F 11.9 °F 14.7 °F 78% 30.08 in 10.0 mi West 6.9 mph - N/A Snow Light Snow
10:34 AM 21.9 °F 12.5 °F 15.4 °F 76% 30.10 in 10.0 mi West 8.1 mph - N/A Snow Light Snow
10:54 AM 21.9 °F 9.2 °F 15.6 °F 77% 30.10 in 10.0 mi West 13.8 mph - N/A   Overcast
11:15 AM 21.7 °F 10.2 °F 15.6 °F 77% 30.11 in 10.0 mi West 11.5 mph 16.1 mph N/A   Overcast
11:34 AM 21.9 °F 9.8 °F 16.0 °F 78% 30.11 in 10.0 mi West 12.7 mph - N/A Snow Light Snow
11:54 AM 22.1 °F 10.0 °F 15.8 °F 77% 30.12 in 10.0 mi West 12.7 mph 17.3 mph N/A Snow Light Snow
12:14 PM 22.5 °F 10.5 °F 16.3 °F 77% 30.11 in 10.0 mi West 12.7 mph - N/A Snow Light Snow
12:34 PM 22.5 °F 10.5 °F 16.3 °F 77% 30.10 in 7.0 mi West 12.7 mph 16.1 mph N/A Snow Light Snow
12:55 PM 22.5 °F 9.4 °F 16.5 °F 78% 30.10 in 10.0 mi West 15.0 mph 21.9 mph N/A Snow Light Snow
1:14 PM 23.0 °F 11.7 °F 17.1 °F 78% 30.10 in 10.0 mi WSW 11.5 mph 16.1 mph N/A Snow Light Snow
1:34 PM 23.0 °F 11.7 °F 17.4 °F 79% 30.10 in 10.0 mi West 11.5 mph - N/A Snow Light Snow
1:55 PM 23.0 °F 12.4 °F 17.2 °F 79% 30.10 in 10.0 mi West 10.4 mph - N/A Snow Light Snow
2:14 PM 23.2 °F 12.6 °F 17.4 °F 79% 30.10 in 10.0 mi West 10.4 mph - N/A Snow Light Snow
2:34 PM 23.5 °F 13.0 °F 17.4 °F 77% 30.10 in 10.0 mi WSW 10.4 mph - N/A Snow Light Snow
2:55 PM 23.5 °F 13.0 °F 17.2 °F 77% 30.11 in 10.0 mi West 10.4 mph - N/A Snow Light Snow
3:14 PM 23.7 °F 14.0 °F 17.4 °F 77% 30.11 in 10.0 mi West 9.2 mph - N/A Snow Light Snow
3:35 PM 23.7 °F 15.6 °F 17.2 °F 76% 30.11 in 7.0 mi West 6.9 mph - N/A Snow Light Snow
3:54 PM 23.7 °F 15.6 °F 17.2 °F 76% 30.11 in 10.0 mi West 6.9 mph - N/A Snow Light Snow
4:14 PM 23.7 °F 16.6 °F 16.9 °F 75% 30.12 in 10.0 mi West 5.8 mph - N/A Snow Light Snow
4:35 PM 23.7 °F 16.6 °F 17.1 °F 76% 30.12 in 10.0 mi WSW 5.8 mph - N/A Snow Light Snow
4:54 PM 23.5 °F 15.4 °F 16.9 °F 76% 30.12 in 10.0 mi WSW 6.9 mph - N/A   Overcast
5:14 PM 23.0 °F 15.8 °F 16.7 °F 77% 30.12 in 10.0 mi SW 5.8 mph - N/A Snow Light Snow
5:35 PM 23.0 °F 18.4 °F 16.7 °F 77% 30.12 in 10.0 mi SW 3.5 mph - N/A   Overcast
5:54 PM 23.0 °F 18.4 °F 16.7 °F 77% 30.13 in 10.0 mi SW 3.5 mph - N/A   Overcast
6:15 PM 22.8 °F 16.7 °F 16.7 °F 77% 30.13 in 10.0 mi SSW 4.6 mph - N/A   Overcast
6:34 PM 22.6 °F 16.5 °F 17.2 °F 80% 30.13 in 10.0 mi SSW 4.6 mph - N/A   Overcast
6:54 PM 22.6 °F 16.5 °F 17.4 °F 80% 30.14 in 10.0 mi SSW 4.6 mph - N/A   Overcast
7:15 PM 22.8 °F 16.7 °F 17.2 °F 79% 30.14 in 10.0 mi SSW 4.6 mph - N/A   Overcast
7:34 PM 22.6 °F 18.0 °F 17.1 °F 79% 30.14 in 10.0 mi SW 3.5 mph - N/A   Overcast
7:55 PM 22.8 °F 16.7 °F 16.7 °F 77% 30.15 in 10.0 mi SW 4.6 mph - N/A   Overcast
8:14 PM 23.0 °F 15.8 °F 16.3 °F 76% 30.15 in 10.0 mi SW 5.8 mph - N/A   Overcast
8:35 PM 23.2 °F 17.2 °F 14.7 °F 70% 30.14 in 10.0 mi WSW 4.6 mph - N/A   Overcast
8:54 PM 22.8 °F 18.2 °F 15.6 °F 74% 30.14 in 10.0 mi SSW 3.5 mph - N/A   Overcast
9:14 PM 22.6 °F 18.0 °F 16.2 °F 76% 30.13 in 10.0 mi South 3.5 mph - N/A   Overcast
9:35 PM 22.6 °F 16.5 °F 16.5 °F 77% 30.13 in 10.0 mi SSW 4.6 mph - N/A   Overcast
9:54 PM 22.6 °F 18.0 °F 16.7 °F 78% 30.13 in 10.0 mi South 3.5 mph - N/A   Overcast
10:14 PM 22.6 °F 16.5 °F 17.1 °F 79% 30.12 in 10.0 mi South 4.6 mph - N/A   Overcast
10:35 PM 22.6 °F 18.0 °F 16.7 °F 78% 30.12 in 10.0 mi South 3.5 mph - N/A   Overcast
10:54 PM 22.6 °F 16.5 °F 16.7 °F 78% 30.12 in 10.0 mi South 4.6 mph - N/A Snow Light Snow
11:14 PM 22.5 °F 16.3 °F 17.1 °F 80% 30.12 in 10.0 mi South 4.6 mph - N/A Snow Light Snow
11:34 PM 22.5 °F 17.8 °F 17.2 °F 80% 30.12 in 10.0 mi SSE 3.5 mph - N/A Snow Light Snow
11:54 PM 22.6 °F 16.5 °F 17.6 °F 81% 30.11 in 10.0 mi South 4.6 mph - N/A   Overcast